Regional Weather Roundup
Issued by NWS State College, PA

Home | Current Version | Previous Version | Text Only | Print | Product List | Glossary On
Versions: 1 2 3 4 5 6 7 8 9 10 11 12 13 14 15 16 17 18 19 20 21 22 23 24 25 26 27 28 29 30 31 32 33 34 35 36 37 38 39 40 41 42 43 44 45 46 47 48 49 50
000
ASUS41 KCTP 052303
RWRCTP

REGIONAL WEATHER ROUNDUP
NATIONAL WEATHER SERVICE STATE COLLEGE PA
700 PM EDT SUN JUL 05 2015

Note: "fair" indicates few or no clouds below 12,000 feet with no
significant weather and/or obstructions to visibility.

* = STATION THAT DOES NOT REPORT PRECIPITATION /E.G. RAIN...SNOW...ETC/
    THUNDER OR FOG.

PAZ002>004-007>009-013>016-020>023-029>032-060000-
WESTERN PENNSYLVANIA

CITY           SKY/WX    TMP DP  RH WIND       PRES   REMARKS
ERIE           PTSUNNY   74  54  49 NE7       30.10F
MEADVILLE      CLOUDY    77  53  43 CALM      30.13S
FRANKLIN*      CLOUDY    73  55  53 SE6       30.15R
NEW CASTLE     FAIR      78  57  48 CALM      30.12S
BEAVER COUNTY  NOT AVBL
BUTLER*        PTSUNNY   75  61  60 NE7       30.13S
PITTSBURGH INT CLOUDY    80  59  48 NE10      30.09S
PITTSBURGH     CLOUDY    77  59  53 NE6       30.09S
INDIANA*       SUNNY     77  64  65 E6        30.15S
LATROBE        PTSUNNY   79  64  61 E7        30.10S
WASHINGTON CO* NOT AVBL
$$

PAZ004>006-010>012-017>019-024>028-033>037-041-042-045-046-049>053-060000-
CENTRAL PENNSYLVANIA

CITY           SKY/WX    TMP DP  RH WIND       PRES   REMARKS
BRADFORD       MOSUNNY   75  53  46 SE6       30.16F
DUBOIS         PTSUNNY   74  55  51 SE5       30.15R
CLEARFIELD     PTSUNNY   75  59  57 E6        30.16R
JOHNSTOWN      PTSUNNY   73  61  65 SE6       30.16S
ALTOONA        PTSUNNY   75  64  68 E3        30.15S
STATE COLLEGE  MOSUNNY   73  64  73 CALM      30.14S
WILLIAMSPORT   MOSUNNY   77  60  55 S3        30.10S
SELINSGROVE    PTSUNNY   78  65  63 CALM      30.13R
FT INDIANTOWN  PTSUNNY   77  63  60 CALM      30.13R
CAPITAL CITY   PTSUNNY   78  63  59 E3        30.12R
HARRISBURG     CLOUDY    75  67  76 CALM      30.11S
YORK           PTSUNNY   79  68  69 E3        30.12R
$$

PAZ038>040-043-044-047-048-054-055-060>062-067>071-060000-
EASTERN PENNSYLVANIA

CITY           SKY/WX    TMP DP  RH WIND       PRES   REMARKS
SCRANTON       MOSUNNY   80  56  43 CALM      30.13S
MOUNT POCONO   MOSUNNY   75  55  49 CALM      30.17F
ALLENTOWN      MOSUNNY   78  63  59 SW5       30.11F
QUAKERTOWN*    PTCLDY    79  66  65 CALM      30.13S
READING        MOSUNNY   79  65  62 W5        30.11S
LANCASTER      MOSUNNY   78  66  66 CALM      30.12R
COATESVILLE    PTCLDY    77  66  69 CALM      30.14S
POTTSTOWN      MOSUNNY   79  66  64 CALM      30.13S
BLUE BELL      MOSUNNY   81  68  65 CALM      30.11R
DOYLESTOWN     MOSUNNY   78  63  59 W5        30.11S
WILLOW GROVE   NOT AVBL
NORTH PHILA    PTSUNNY   83  61  47 CALM      30.12S
PHILADELPHIA   MOSUNNY   83  64  52 SW8       30.11S
$$


USA.gov is the U.S. government's official web portal to all federal, state and local government web resources and services.